Regional Weather Roundup
Issued by NWS Cleveland, OH

Home | Current Version | Previous Version | Text Only | Print | Product List | Glossary Off
Versions: 1 2 3 4 5 6 7 8 9 10 11 12 13 14 15 16 17 18 19 20 21 22 23 24 25 26 27 28 29 30 31 32 33 34 35 36 37 38 39 40 41 42 43 44 45 46 47 48 49 50

000
ASUS41 KCLE 190010
RWRCLE
OHIO REGIONAL WEATHER ROUNDUP
NATIONAL WEATHER SERVICE CLEVELAND, OH
800 PM EDT FRI AUG 18 2017

NOTE: "FAIR" INDICATES FEW OR NO CLOUDS BELOW 12,000 FEET WITH NO
SIGNIFICANT WEATHER AND/OR OBSTRUCTIONS TO VISIBILITY.

OHZ001>008-015>018-024>027-034-035-043-044-190100-
   NORTHWEST OHIO

CITY           SKY/WX    TMP DP  RH WIND       PRES   REMARKS
DEFIANCE       PTCLDY    76  61  59 VRB3      29.86R
FINDLAY        CLEAR     76  62  62 W9        29.85R
TOLEDO EXPRESS CLEAR     75  64  68 W7        29.84S
TOLEDO EXEC    CLEAR     76  62  62 W10       29.85R
LIMA           CLEAR     75  64  68 W9        29.88R
$$

OHZ009>014-019>023-028>033-038-089-190100-
   NORTHEAST OHIO

CITY           SKY/WX    TMP DP  RH WIND       PRES   REMARKS
CLE-HOPKINS    PTCLDY    79  62  56 W13       29.86R
CLE-LAKEFRONT  MOCLDY    75  67  76 W10       29.83R
CUY CO. ARPT   NOT AVBL
LORAIN-ELYRIA  MOCLDY    74  58  57 W5        29.85R
ASHTABULA      CLEAR     73  63  70 W8        29.84S
AKRON-CANTON   NOT AVBL
WOOSTER        CLEAR     74  62  66 W6        29.87R
MANSFIELD      CLEAR     75  62  64 W6        29.88R
YOUNGSTOWN     NOT AVBL
$$

OHZ042-051>053-060>062-070>072-077>081-190100-
  SOUTHWEST OHIO

CITY           SKY/WX    TMP DP  RH WIND       PRES   REMARKS
CINC-COVINGTON PTCLDY    79  65  62 W6        29.92R
CINC-LUNKEN    CLEAR     80  64  58 W9        29.91R
HAMILTON       CLEAR     80  65  59 W7        29.91R
DAYTON         PTCLDY    76  63  64 SW9       29.91R
WRIGHT-PAT AFB PTCLDY    79  63  57 SW9       29.89R
DAYTON GENERAL CLEAR     79  63  57 SW7       29.91R
WILMINGTON     CLEAR     78  64  61 W9        29.91R
$$

OHZ036-037-039>041-045>050-054>059-063>069-073>076-082>088-190100-
  CENTRAL AND SOUTHEAST OHIO

CITY           SKY/WX    TMP DP  RH WIND       PRES   REMARKS
COLUMBUS       PTCLDY    81  64  56 W13       29.87R
OSU AIRPORT    PTCLDY    78  65  63 W9        29.88R
BOLTON FIELD   CLEAR     77  66  70 SW5       29.89R
RICKENBACK AFB CLEAR     78  66  66 W7        29.88S
NEWARK         CLEAR     77  64  64 W5        29.87R
MARION         PTCLDY    76  62  62 W6        29.88R
LANCASTER      CLEAR     76  66  71 W5        29.89R
ZANESVILLE     PTCLDY    78  64  61 W7        29.88R
NEW PHILLY     NOT AVBL
$$



USA.gov is the U.S. government's official web portal to all federal, state and local government web resources and services.